This is the latest recevied weather packets stored in our database for station/object K9RCP-20. If no packets are shown the sender has not sent any weather packets the latest 10 day(s).
| Time | Temp. | Humidity | Pressure | Rain* | Wind** | Luminosity | Snow |
|---|---|---|---|---|---|---|---|
| 1778358251 | 23.89° C | 42% | 1015.2 hPa | 0 mm | - | 561 W/m² | - |
| 1778357946 | 24.44° C | 43% | 1015.2 hPa | 0 mm | - | 751 W/m² | - |
| 1778357642 | 23.33° C | 42% | 1015.1 hPa | 0 mm | - | 712 W/m² | - |
| 1778357340 | 23.89° C | 43% | 1015.2 hPa | 0 mm | - | 747 W/m² | - |
| 1778357039 | 23.33° C | 43% | 1015.4 hPa | 0 mm | - | 674 W/m² | - |
| 1778356736 | 22.78° C | 42% | 1015.6 hPa | 0 mm | - | 744 W/m² | - |
| 1778356436 | 23.33° C | 40% | 1015.6 hPa | 0 mm | - | 700 W/m² | - |
| 1778356131 | 22.78° C | 42% | 1015.7 hPa | 0 mm | - | 691 W/m² | - |
| 1778355828 | 22.78° C | 43% | 1015.8 hPa | 0 mm | - | 726 W/m² | - |
| 1778355524 | 22.22° C | 44% | 1015.8 hPa | 0 mm | - | 719 W/m² | - |
| 1778355223 | 22.22° C | 44% | 1015.9 hPa | 0 mm | - | 702 W/m² | - |
| 1778354920 | 22.78° C | 43% | 1015.9 hPa | 0 mm | - | 645 W/m² | - |
| 1778354616 | 22.22° C | 47% | 1016 hPa | 0 mm | - | 695 W/m² | - |
| 1778354311 | 22.22° C | 47% | 1016.1 hPa | 0 mm | - | 737 W/m² | - |
| 1778354007 | 21.67° C | 49% | 1016 hPa | 0 mm | - | 719 W/m² | - |
| 1778353704 | 21.11° C | 49% | 1016.2 hPa | 0 mm | - | 720 W/m² | - |
| 1778353401 | 21.11° C | 52% | 1016.2 hPa | 0 mm | - | 498 W/m² | - |
| 1778353098 | 21.67° C | 49% | 1016.3 hPa | 0 mm | - | 704 W/m² | - |
| 1778352794 | 22.22° C | 50% | 1016.5 hPa | 0 mm | - | 698 W/m² | - |
| 1778352492 | 20.56° C | 54% | 1016.4 hPa | 0 mm | - | 671 W/m² | - |
| 1778352189 | 20.56° C | 55% | 1016.6 hPa | 0 mm | - | 665 W/m² | - |
| 1778351885 | 20.56° C | 56% | 1016.6 hPa | 0 mm | - | 669 W/m² | - |
| 1778351581 | 20° C | 57% | 1016.6 hPa | 0 mm | - | 692 W/m² | - |
| 1778351276 | 20.56° C | 56% | 1016.6 hPa | 0 mm | - | 677 W/m² | - |
| 1778350974 | 20° C | 57% | 1016.7 hPa | 0 mm | - | 570 W/m² | - |
* Rain latest hour (hover to see other rain measurements)
** Current wind speed in m/s (hover to see current wind gust speed)